Total_Precipitation_Accumulation
0.00 0.01 0.01 0.02 0.02 0.03 0.07 0.09 0.18 0.24 0.18 0.20 0.36 0.54 0.69 0.81 1.05 1.17 1.20 1.14 1.15 1.45 1.87 2.09 2.39 2.85 3.61 4.34 5.01 5.11 5.27 4.74 4.07 3.49 3.05 2.92 2.68 2.39 2.33 2.19 2.02 1.86 1.68 1.59
0.02 0.04 0.03 0.02 0.03 0.05 0.09 0.12 0.20 0.22 0.15 0.17 0.35 0.63 0.82 0.91 0.90 0.98 1.02 1.06 1.16 1.53 1.97 2.34 2.86 3.22 3.22 3.74 4.43 4.48 4.12 3.82 3.33 2.92 2.73 2.56 2.46 2.17 1.99 1.85 1.82 1.64 1.49 1.45
0.04 0.05 0.03 0.03 0.05 0.10 0.12 0.14 0.18 0.17 0.15 0.22 0.41 0.78 1.09 1.04 0.78 0.71 0.78 0.85 0.99 1.33 1.85 2.28 2.68 3.08 3.03 3.39 3.50 3.10 2.88 2.87 2.79 2.59 2.48 2.37 2.32 2.14 1.84 1.56 1.50 1.45 1.27 1.22
0.03 0.03 0.03 0.04 0.06 0.07 0.08 0.08 0.07 0.07 0.14 0.29 0.43 0.96 1.37 1.17 0.89 0.74 0.78 0.95 1.01 1.12 1.31 1.57 1.89 2.31 2.50 2.56 2.49 2.41 2.34 2.31 2.47 2.48 2.26 2.06 1.74 1.59 1.49 1.35 1.34 1.36 1.23 1.16
0.03 0.03 0.03 0.04 0.05 0.05 0.05 0.04 0.05 0.08 0.13 0.27 0.48 0.82 1.22 1.21 1.18 1.02 0.89 0.94 0.89 0.91 0.94 1.08 1.20 1.41 1.69 1.92 1.96 1.91 2.14 2.21 2.21 2.19 2.13 2.10 1.83 1.61 1.50 1.57 1.72 1.60 1.35 1.13
0.05 0.05 0.04 0.03 0.04 0.04 0.04 0.05 0.12 0.25 0.37 0.70 0.69 0.74 1.09 1.06 1.02 1.02 0.87 0.73 0.68 0.68 0.73 0.88 0.95 0.99 1.12 1.26 1.36 1.47 1.70 1.90 1.96 1.91 1.91 1.93 1.87 1.76 1.51 1.43 1.46 1.37 1.25 1.11
0.14 0.12 0.09 0.05 0.05 0.05 0.05 0.09 0.32 0.69 1.01 1.18 0.73 0.71 0.92 0.81 0.82 0.90 0.71 0.48 0.43 0.50 0.53 0.63 0.70 0.78 0.86 0.88 0.95 1.11 1.30 1.46 1.59 1.65 1.67 1.72 1.86 1.75 1.50 1.29 1.29 1.23 1.09 1.00
0.15 0.18 0.10 0.05 0.05 0.06 0.06 0.07 0.19 0.34 0.50 0.71 0.75 1.11 1.05 0.68 0.63 0.55 0.40 0.30 0.27 0.42 0.45 0.44 0.48 0.53 0.66 0.67 0.73 0.84 0.93 1.04 1.17 1.39 1.57 1.53 1.60 1.46 1.32 1.39 1.29 1.13 0.94 0.95
0.07 0.06 0.05 0.05 0.05 0.07 0.05 0.05 0.06 0.10 0.16 0.44 0.83 1.19 0.99 0.58 0.54 0.41 0.28 0.21 0.26 0.33 0.43 0.38 0.37 0.41 0.44 0.46 0.49 0.58 0.74 0.94 1.02 1.12 1.33 1.42 1.35 1.30 1.35 1.43 1.36 1.22 1.11 1.01
0.04 0.02 0.04 0.05 0.05 0.07 0.06 0.06 0.06 0.07 0.15 0.34 0.70 1.06 1.13 0.87 0.64 0.43 0.32 0.30 0.37 0.35 0.44 0.49 0.36 0.36 0.38 0.35 0.40 0.53 0.67 0.89 1.08 1.09 1.07 1.11 1.28 1.31 1.40 1.40 1.23 1.17 1.13 1.10
0.04 0.02 0.03 0.04 0.06 0.08 0.08 0.08 0.09 0.10 0.12 0.22 0.53 0.78 0.70 0.69 0.52 0.41 0.42 0.49 0.36 0.32 0.39 0.43 0.32 0.27 0.32 0.35 0.42 0.53 0.65 0.91 1.08 1.00 1.01 1.10 1.24 1.29 1.31 1.43 1.38 1.26 1.18 1.15
0.05 0.03 0.04 0.08 0.11 0.10 0.10 0.10 0.11 0.14 0.16 0.17 0.28 0.49 0.43 0.50 0.48 0.56 0.60 0.56 0.46 0.42 0.40 0.43 0.39 0.40 0.41 0.46 0.51 0.62 0.69 0.83 0.94 0.97 1.03 1.10 1.18 1.22 1.18 1.22 1.27 1.31 1.21 1.13
0.06 0.05 0.07 0.21 0.31 0.22 0.14 0.10 0.11 0.13 0.13 0.16 0.31 0.50 0.44 0.48 0.50 0.55 0.58 0.53 0.59 0.62 0.55 0.51 0.52 0.57 0.51 0.53 0.65 0.73 0.80 0.83 0.93 1.09 1.08 1.03 1.07 1.01 1.01 1.05 1.10 1.18 1.22 1.24
0.07 0.06 0.08 0.22 0.33 0.35 0.26 0.17 0.16 0.13 0.14 0.17 0.24 0.44 0.44 0.55 0.69 0.62 0.66 0.59 0.54 0.56 0.53 0.46 0.48 0.51 0.54 0.59 0.65 0.72 0.81 0.86 0.94 0.96 0.96 0.96 0.95 0.94 1.00 1.05 1.07 1.10 1.13 1.21
0.09 0.07 0.05 0.09 0.17 0.20 0.21 0.20 0.18 0.13 0.12 0.17 0.22 0.35 0.50 0.60 0.73 0.65 0.63 0.69 0.70 0.57 0.50 0.40 0.36 0.47 0.58 0.65 0.65 0.71 0.79 0.87 0.99 1.00 0.93 0.88 0.90 0.93 0.96 0.97 1.00 1.03 1.09 1.12
0.15 0.11 0.10 0.11 0.14 0.14 0.16 0.18 0.15 0.11 0.09 0.10 0.18 0.36 0.52 0.65 0.68 0.64 0.54 0.52 0.66 0.59 0.50 0.48 0.45 0.53 0.59 0.60 0.60 0.58 0.61 0.72 0.86 0.91 0.95 0.98 0.96 0.90 0.95 0.99 0.99 1.03 1.12 1.24
0.28 0.22 0.21 0.21 0.17 0.18 0.25 0.20 0.17 0.14 0.12 0.13 0.23 0.37 0.53 0.66 0.59 0.63 0.58 0.50 0.50 0.46 0.44 0.51 0.53 0.56 0.57 0.56 0.53 0.52 0.52 0.62 0.82 0.93 0.94 1.03 1.12 1.03 1.10 1.14 1.14 1.16 1.23 1.34
0.38 0.39 0.31 0.28 0.31 0.37 0.28 0.23 0.22 0.24 0.24 0.23 0.27 0.38 0.59 0.76 0.66 0.59 0.58 0.57 0.52 0.41 0.41 0.47 0.47 0.48 0.51 0.51 0.52 0.50 0.52 0.60 0.80 0.96 1.00 1.16 1.31 1.22 1.25 1.27 1.29 1.36 1.43 1.47
0.39 0.47 0.47 0.42 0.44 0.46 0.37 0.33 0.35 0.44 0.52 0.44 0.45 0.58 0.63 0.60 0.58 0.61 0.55 0.50 0.48 0.45 0.44 0.43 0.47 0.48 0.50 0.54 0.54 0.57 0.69 0.80 0.92 1.04 1.15 1.32 1.48 1.55 1.53 1.50 1.59 1.65 1.68 1.73
0.35 0.45 0.55 0.57 0.63 0.72 0.65 0.52 0.48 0.60 0.93 0.76 0.60 0.63 0.62 0.60 0.73 0.74 0.55 0.49 0.48 0.47 0.46 0.50 0.57 0.57 0.54 0.60 0.63 0.68 0.83 1.02 1.14 1.17 1.19 1.29 1.47 1.57 1.61 1.62 1.78 1.94 1.98 1.98
0.52 0.54 0.56 0.64 0.74 0.73 0.65 0.58 0.62 1.05 1.37 0.97 0.83 0.85 0.89 0.86 0.80 0.69 0.59 0.59 0.53 0.46 0.49 0.52 0.56 0.63 0.66 0.72 0.80 0.91 0.99 1.09 1.12 1.12 1.15 1.23 1.46 1.74 1.78 1.84 1.92 2.03 2.10 2.15
0.70 0.71 0.69 0.74 0.97 1.07 0.69 0.62 0.96 1.27 1.18 1.20 1.16 1.15 1.09 0.94 0.76 0.63 0.58 0.59 0.54 0.50 0.53 0.53 0.54 0.60 0.68 0.78 0.93 1.01 1.04 1.07 1.13 1.14 1.20 1.32 1.57 1.67 1.77 1.93 1.98 2.13 2.25 2.26
0.78 0.88 0.86 0.95 1.15 1.05 0.83 0.90 0.94 1.00 1.12 1.18 1.11 1.10 1.06 1.02 0.87 0.74 0.66 0.63 0.62 0.59 0.58 0.62 0.60 0.64 0.70 0.81 1.00 1.14 1.13 1.14 1.14 1.13 1.17 1.27 1.41 1.51 1.65 1.73 1.71 1.80 1.93 1.95
0.89 0.79 0.99 1.32 1.31 1.12 0.96 0.90 0.91 0.86 0.93 0.93 0.89 0.83 0.81 0.81 0.77 0.69 0.65 0.69 0.71 0.75 0.70 0.69 0.66 0.68 0.72 0.78 0.96 1.11 1.12 1.13 1.13 1.08 1.05 1.14 1.32 1.40 1.47 1.59 1.60 1.70 1.77 1.83
1.10 1.05 1.24 1.60 1.58 1.37 1.23 1.08 1.04 0.91 0.88 0.87 0.82 0.78 0.71 0.63 0.62 0.60 0.54 0.51 0.55 0.59 0.60 0.60 0.61 0.65 0.68 0.74 0.91 1.05 1.08 1.10 1.14 1.10 1.06 1.13 1.24 1.34 1.42 1.53 1.62 1.65 1.68 1.66
1.02 1.19 1.44 1.65 1.53 1.45 1.44 1.14 1.05 1.09 0.99 0.85 0.82 0.76 0.68 0.58 0.53 0.52 0.49 0.46 0.45 0.50 0.57 0.60 0.63 0.64 0.62 0.67 0.77 0.87 1.04 1.20 1.26 1.18 1.10 1.09 1.10 1.18 1.26 1.34 1.35 1.28 1.26 1.25